Theta_e
310 313 314 309 309 309 314 319 319 321 322 323 324 324 325 322 322 319 319 321 323 327 332 334 335 336 336 337 337 334 334 334 334 334 335 335 334 334 334 333 329 329 329 328
308 312 310 310 308 309 310 310 313 316 318 323 324 324 323 322 322 321 320 319 318 318 327 334 335 336 336 336 336 336 335 335 333 332 333 333 334 333 333 333 331 330 329 329
307 309 310 312 311 309 310 310 311 315 313 312 316 319 322 321 320 322 321 321 322 318 319 331 335 335 336 336 336 337 337 335 335 332 331 333 335 335 333 331 330 330 331 331
308 307 308 312 312 312 310 310 311 313 317 320 315 324 316 320 321 321 322 322 321 318 318 319 334 336 336 336 337 337 337 337 337 336 335 332 333 334 332 331 331 331 331 331
307 308 307 309 313 312 311 310 310 314 314 314 314 317 316 315 317 318 321 322 321 322 316 316 318 327 334 335 335 336 337 337 338 337 337 337 337 336 335 334 334 333 332 333
304 304 305 308 308 311 310 309 310 313 313 313 313 317 314 317 317 317 318 321 316 314 313 314 314 316 322 327 331 334 335 335 336 336 336 337 336 336 337 336 336 334 333 333
302 304 304 306 309 312 311 309 309 315 315 314 312 314 315 313 308 313 310 316 318 319 317 311 310 311 312 314 318 323 327 331 334 334 335 335 335 335 336 336 335 334 335 334
299 300 306 307 310 312 312 309 309 310 314 311 312 314 313 312 310 307 308 309 310 311 312 313 314 310 308 308 308 308 309 309 312 315 323 332 333 333 333 333 334 333 332 330
305 303 307 308 308 311 311 310 308 307 303 310 311 309 309 307 305 307 309 309 310 309 309 308 308 310 311 309 308 308 308 308 307 307 307 307 308 312 318 326 328 326 328 327
302 304 306 307 309 311 311 309 308 307 304 306 308 308 309 305 306 308 309 310 310 309 308 308 308 309 310 310 311 311 311 312 312 312 311 309 308 307 307 308 312 321 324 324
302 304 307 306 311 311 312 311 308 308 305 307 309 306 306 304 308 307 308 308 308 308 308 307 307 306 306 307 307 309 310 311 312 312 313 313 313 314 313 313 311 311 314 319
302 299 305 307 306 305 307 310 308 310 307 303 307 306 304 305 306 307 307 308 308 308 307 307 307 306 306 306 306 307 307 308 309 309 309 309 309 310 311 312 313 314 314 315
302 303 297 303 308 305 309 309 308 308 305 305 303 306 304 305 305 306 306 307 307 307 306 306 305 304 304 304 305 305 306 306 307 307 307 307 307 307 307 308 308 308 308 309
302 303 300 304 302 304 305 307 310 308 305 306 305 305 305 304 304 304 306 306 306 306 305 303 302 302 302 302 302 302 303 303 303 304 305 306 306 307 307 307 307 307 307 307
302 300 302 303 303 304 304 305 310 309 308 307 306 307 304 303 302 304 306 305 304 302 301 301 301 301 301 301 301 301 301 302 302 303 303 303 303 303 303 304 304 304 305 305
299 301 300 298 301 302 304 305 308 309 308 308 305 305 302 302 304 304 303 302 301 301 300 299 299 299 299 299 299 299 299 300 299 299 300 300 301 302 302 302 303 303 303 303
298 300 298 299 299 300 299 301 305 306 307 308 308 306 301 300 302 302 301 301 300 299 299 299 299 298 298 298 298 299 299 299 299 299 299 299 299 299 299 299 300 300 301 302
296 296 292 295 294 298 300 297 300 304 306 306 307 307 304 302 303 302 301 300 299 299 299 298 298 297 297 297 297 297 297 297 297 298 298 298 298 298 298 298 298 298 298 298
295 295 290 292 287 293 296 297 297 300 301 301 302 300 300 301 301 299 299 299 298 298 297 297 296 296 296 296 296 296 296 296 296 296 296 296 297 297 297 297 297 297 297 297
295 295 291 282 289 290 294 296 298 297 296 298 299 299 298 300 298 297 299 298 297 297 297 296 296 296 296 296 296 296 296 295 295 295 295 295 294 294 294 294 294 295 295 296
281 279 284 281 283 288 293 297 298 293 296 299 299 299 299 296 298 300 298 297 297 296 296 296 296 296 296 296 296 295 294 294 293 293 292 292 292 292 291 292 292 292 293 293
289 285 282 279 283 290 294 295 295 296 297 298 298 298 297 298 298 298 297 297 297 296 296 296 296 296 296 294 293 292 291 291 290 290 290 290 290 290 290 290 290 291 291 291
290 293 291 292 292 293 295 296 297 298 298 298 299 298 298 298 298 297 297 296 296 296 296 296 296 295 292 290 290 289 289 289 289 289 289 289 289 289 289 289 289 290 290 290
291 293 291 292 293 294 296 296 296 297 298 298 298 298 297 296 296 296 296 296 296 296 296 296 294 290 289 289 289 288 288 288 288 289 288 288 289 289 288 288 288 288 288 288
293 291 289 290 293 294 296 296 297 296 296 298 297 296 295 296 296 296 296 295 295 295 295 292 289 289 289 289 289 288 288 288 288 288 288 288 288 287 288 288 287 287 287 286
292 292 294 292 294 294 295 296 296 296 296 296 297 296 295 295 295 295 295 295 295 295 291 289 289 290 289 289 289 288 288 287 287 287 287 287 286 286 286 287 287 287 286 286
Wind_Speed
13 8 15 16 13 9 2 6 12 8 9 8 19 15 17 15 24 22 19 10 9 19 28 24 21 20 22 26 27 27 29 26 26 34 31 30 28 26 26 26 22 22 22 21
6 19 15 10 11 11 14 8 5 2 2 9 9 16 17 13 20 30 20 16 17 11 16 30 26 24 24 25 27 23 25 25 25 28 35 31 28 26 27 26 24 23 24 23
17 9 18 13 12 14 16 18 8 2 2 2 5 5 7 7 15 31 31 28 22 13 3 18 31 28 26 24 23 24 22 22 22 21 29 32 29 28 28 28 26 27 26 27
11 19 17 15 17 14 15 7 6 6 5 6 2 5 8 15 15 16 34 31 22 16 13 2 21 27 24 23 21 22 22 22 22 21 22 27 31 32 33 31 26 25 27 28
4 9 16 19 9 12 10 8 10 6 3 2 2 0 5 11 17 19 28 34 27 20 19 5 8 12 20 21 24 23 22 23 23 23 23 23 27 30 31 29 27 26 27 30
13 2 6 5 16 15 7 5 5 4 4 3 8 7 3 8 13 16 20 33 18 15 7 6 8 11 17 19 22 23 25 27 30 28 27 30 30 30 31 32 31 31 29 28
5 10 5 7 4 17 13 8 3 4 4 10 13 3 9 3 9 8 9 22 28 30 30 10 7 6 8 12 17 20 23 26 26 26 30 31 31 31 34 34 33 33 32 32
5 7 14 13 8 7 12 14 4 8 9 3 11 8 5 15 6 19 24 27 25 23 20 21 19 8 5 7 8 13 16 20 25 29 32 33 34 34 32 31 30 31 31 31
3 5 2 7 9 11 10 17 9 5 3 4 5 5 7 3 9 14 18 23 21 20 19 16 13 13 12 5 1 1 2 4 9 13 16 20 26 32 35 36 32 28 31 31
1 6 2 3 6 16 7 14 9 1 7 4 4 4 5 7 12 11 14 22 25 29 30 27 24 23 20 15 14 9 4 4 3 2 3 7 11 15 19 24 29 32 29 28
2 2 2 1 6 9 13 11 9 5 5 6 4 4 1 6 13 14 17 25 28 26 27 24 21 20 18 16 15 13 11 9 6 5 5 3 2 4 6 9 14 20 26 30
3 3 4 6 6 10 6 13 26 9 7 2 3 3 12 12 14 25 22 28 24 24 23 20 17 15 14 13 12 11 9 7 6 5 5 3 3 3 4 5 6 8 10 12
1 0 4 6 3 2 4 7 18 7 4 4 5 2 5 18 16 21 26 26 26 24 20 16 13 13 12 11 10 9 7 6 4 3 3 4 3 4 6 6 6 8 9 11
4 2 4 2 3 4 6 10 6 17 5 7 5 10 4 6 11 16 24 24 22 18 14 14 13 13 11 11 10 9 8 7 7 6 7 8 9 10 12 14 14 14 15 16
3 3 0 1 4 3 4 5 5 10 5 13 16 18 11 9 9 17 25 24 19 16 14 13 13 12 12 11 11 11 10 9 8 7 7 8 11 12 14 16 17 18 19 21
8 2 2 2 3 4 4 8 6 6 6 6 14 12 6 15 24 22 25 22 18 15 14 12 11 11 10 9 8 7 7 7 8 8 9 10 11 13 14 16 17 19 20 22
5 5 4 2 5 4 4 3 4 5 5 7 16 10 5 8 14 20 21 19 16 13 11 9 7 6 6 6 6 7 9 9 10 12 14 15 16 17 18 19 20 21 22 23
4 4 2 2 5 3 3 3 3 6 7 3 11 7 8 12 17 20 15 16 12 9 7 4 3 4 5 6 7 8 9 10 10 11 12 14 15 16 17 18 20 22 24 25
1 1 2 2 1 4 3 1 2 1 3 9 11 10 19 25 20 11 15 13 12 9 6 3 3 6 8 11 13 14 15 16 16 15 16 17 19 20 20 21 22 23 24 25
3 1 3 3 4 4 4 3 1 1 1 2 16 14 17 18 4 4 14 11 9 6 2 2 6 9 12 13 15 16 18 19 19 19 20 21 22 23 23 24 24 24 25 26
2 3 4 2 1 6 6 5 2 5 5 3 21 24 19 4 5 17 13 8 5 2 3 6 9 12 14 16 17 18 19 21 22 23 23 24 25 26 27 28 28 28 29 29
5 4 3 2 3 6 7 1 5 4 7 20 23 19 18 16 13 10 6 6 6 7 8 10 12 14 16 18 18 19 21 23 25 27 28 29 29 30 30 30 29 29 30 31
2 5 4 7 5 6 13 1 6 10 17 17 18 17 15 10 8 7 10 11 13 14 13 14 15 15 14 15 18 21 23 25 26 27 28 28 28 29 29 29 30 30 29 29
4 8 3 3 6 11 11 10 9 9 14 19 18 18 12 11 11 12 12 14 16 17 17 16 14 12 12 15 18 21 23 25 26 27 28 28 29 30 29 28 28 28 29 29
7 6 6 5 8 5 16 21 26 19 14 19 20 18 14 14 12 12 13 14 14 17 15 13 10 11 13 17 20 22 24 26 27 28 29 29 30 30 29 28 28 28 26 28
13 7 9 7 14 13 6 8 26 23 25 27 27 24 19 19 15 14 14 14 15 14 11 8 8 12 15 19 22 24 25 27 29 30 30 30 30 30 29 29 29 27 28 26
Wind_Direction
212 211 211 207 221 253 197 178 204 202 227 173 218 221 228 236 281 290 307 276 240 231 220 216 215 214 217 223 223 224 217 218 215 215 214 220 224 225 229 233 239 241 245 245
249 231 212 193 209 225 249 249 235 200 256 204 208 226 219 193 211 247 274 298 322 292 235 207 209 211 216 223 226 225 225 226 228 222 224 226 231 233 236 241 243 245 247 250
220 244 204 218 212 207 222 235 223 210 178 61 106 266 218 218 216 228 245 260 277 288 337 209 205 210 215 214 223 225 232 233 233 231 226 227 232 237 239 242 242 240 246 253
237 239 240 222 220 213 225 202 204 174 171 206 195 258 214 215 222 223 233 238 247 279 278 269 207 203 209 214 216 224 232 240 242 239 235 233 234 233 240 248 258 254 250 251
230 211 228 223 243 220 221 186 198 157 120 120 244 179 268 194 214 220 225 230 227 236 274 250 194 186 203 204 212 216 219 229 241 249 253 248 250 253 258 263 261 261 258 256
254 262 309 321 217 234 249 167 158 118 112 253 183 184 233 197 215 212 215 222 189 172 236 215 205 192 193 202 213 211 213 216 222 225 233 240 252 260 258 262 264 268 268 264
257 215 205 214 275 199 226 173 141 164 189 234 152 180 233 270 308 193 172 200 187 193 204 206 196 204 206 212 213 216 219 221 227 229 230 232 239 242 252 261 264 268 268 269
183 274 168 169 230 210 209 197 175 169 192 155 142 221 236 218 146 96 98 115 135 153 178 205 233 261 225 232 243 242 242 241 241 241 238 237 240 241 243 252 252 259 261 266
294 270 62 190 189 190 191 217 204 109 36 109 193 257 312 126 124 116 109 117 116 122 125 129 138 173 215 207 152 284 265 256 254 253 251 248 247 248 249 250 251 255 262 261
168 291 266 317 202 209 209 203 212 113 144 186 206 198 194 150 139 131 120 113 115 114 110 109 108 108 109 106 115 114 92 73 57 12 281 267 262 263 261 258 256 252 254 259
227 229 267 343 200 192 200 212 234 180 155 171 138 230 151 184 146 128 123 120 123 115 108 107 104 102 100 99 95 96 95 94 95 77 65 49 348 305 283 271 267 262 259 258
229 221 278 259 195 179 258 214 200 205 211 229 132 298 325 139 129 125 121 121 115 110 113 113 111 103 97 95 95 95 91 89 86 84 81 73 39 350 329 316 302 293 288 281
309 121 314 339 144 10 305 206 194 204 111 211 117 218 4 105 109 124 126 122 122 122 119 116 112 99 96 90 84 81 76 70 55 30 7 353 355 341 326 318 310 305 300 299
274 224 185 352 241 286 311 278 171 203 174 196 161 135 136 102 119 127 124 121 123 121 117 112 104 95 87 80 73 68 56 44 27 359 338 322 318 317 314 314 314 313 310 307
317 176 250 0 288 269 268 328 158 205 217 189 159 146 160 142 132 131 125 127 124 119 114 106 95 83 73 65 59 51 40 29 18 358 339 334 331 326 319 313 312 309 305 301
328 49 56 289 315 275 314 351 61 92 99 58 126 117 143 127 127 128 134 132 128 125 117 107 93 83 73 64 54 40 27 16 9 355 344 340 330 324 318 317 318 316 311 306
341 346 6 250 337 7 10 310 15 64 79 134 139 142 133 115 125 137 137 136 132 124 110 94 79 64 49 29 12 357 351 343 336 332 329 327 326 324 322 320 319 317 314 312
314 342 38 292 4 72 239 260 153 115 134 145 113 129 110 124 135 140 144 139 133 127 121 106 68 23 6 355 347 341 332 325 321 317 315 313 311 312 312 313 315 315 314 313
58 11 2 107 190 282 337 25 82 137 151 168 133 128 132 137 130 127 149 149 149 150 144 122 16 355 344 337 336 335 332 329 328 327 326 323 321 321 320 319 318 316 312 311
349 64 129 38 106 204 241 270 337 14 317 149 138 142 148 151 144 220 167 162 157 156 155 346 340 333 330 329 329 329 327 325 326 325 324 323 321 321 320 317 316 313 310 308
5 356 152 155 186 283 252 224 86 91 242 147 153 155 155 128 181 159 162 172 178 219 302 318 321 319 319 318 319 319 317 316 317 318 319 318 319 319 320 321 322 319 317 313
176 134 223 81 62 280 202 97 163 199 121 126 130 131 130 133 136 158 190 223 251 268 282 294 303 306 307 309 312 314 313 313 313 314 314 316 318 318 318 318 317 314 312 311
245 190 185 183 216 239 192 170 177 155 147 151 155 163 167 179 213 241 252 251 256 262 272 282 290 293 299 308 311 311 311 310 310 310 311 312 313 314 316 318 317 315 315 315
256 203 200 77 251 230 214 211 218 205 188 186 188 185 198 232 246 251 256 259 255 258 267 274 281 286 305 312 316 316 314 312 311 312 314 313 310 311 312 312 312 315 321 321
204 146 183 263 270 269 240 234 232 225 214 211 205 205 225 225 234 249 255 252 252 258 260 263 276 304 320 322 321 319 316 315 314 314 313 312 311 311 310 309 312 317 318 319
186 192 191 211 207 184 172 202 227 220 217 217 218 224 236 236 250 264 255 249 251 253 246 261 295 314 321 323 324 320 319 317 316 315 314 313 312 312 312 311 309 310 312 314